Location: Vista Encantada
(35.1109°N, 106.5681°W)
Time: 08:41:00
(UTC+00:00)

ERS-2 - Pass Details

Date: 29 October 2020
Orbit: 493 x 497 km, 98.6° (Epoch: 04 December)

Event Time Altitude Azimuth Distance (km) Brightness Sun altitude
Rises 12:02:12 0° 177° (S) 2,563 5.8 -17.5°
Reaches altitude 10° 12:04:18 10° 182° (S) 1,684 4.8 -17.1°
Maximum altitude 12:07:49 50° 259° (W) 636 2.2 -16.4°
Enters shadow 12:10:34 16° 332° (NNW) 1,372 4.0 -15.8°
